DW0275 Weather Reports


time (UTC)temp
C
wind
direction
speed
KPH
gust
KPH
rain 1hr
cm
rain 24hr
cm
rain mn
cm
humidity
%
barometer
mb
20260510205320 31 138 14.5 24.1 0.00 0.00 0.00 73 1015.6
20260510204849 31 142 9.7 24.1 0.00 0.00 0.00 75 1015.6
20260510204343 31 151 12.9 24.1 0.00 0.00 0.00 74 1015.6
20260510203836 31 139 12.9 22.5 0.00 0.00 0.00 75 1015.6
20260510203330 31 131 9.7 16.1 0.00 0.00 0.00 74 1015.7
20260510202839 31 131 11.3 22.5 0.00 0.00 0.00 73 1015.6
20260510202404 31 145 8.0 22.5 0.00 0.00 0.00 75 1015.6
20260510201843 31 160 9.7 22.5 0.00 0.00 0.00 74 1015.6
20260510201343 31 131 14.5 22.5 0.00 0.00 0.00 75 1015.5
20260510200844 31 115 14.5 24.1 0.00 0.00 0.00 75 1015.6
20260510200320 31 138 11.3 24.1 0.00 0.00 0.00 75 1015.6
20260510195832 31 136 9.7 22.5 0.00 0.00 0.00 75 1015.7
20260510195322 31 153 14.5 22.5 0.00 0.00 0.00 74 1015.8
20260510194820 31 129 11.3 22.5 0.00 0.00 0.00 74 1015.9
20260510194332 31 117 14.5 22.5 0.00 0.00 0.00 74 1015.9
20260510193837 31 126 12.9 20.9 0.00 0.00 0.00 74 1015.9
20260510193324 32 145 8.0 17.7 0.00 0.00 0.00 73 1016.1
20260510192834 31 176 9.7 17.7 0.00 0.00 0.00 73 1016.1
20260510192327 31 96 8.0 19.3 0.00 0.00 0.00 74 1016.1
20260510191832 31 134 9.7 19.3 0.00 0.00 0.00 74 1016.2
20260510191324 31 148 11.3 20.9 0.00 0.00 0.00 74 1016.3
20260510190837 31 114 11.3 20.9 0.00 0.00 0.00 74 1016.4
20260510190328 31 126 14.5 20.9 0.00 0.00 0.00 71 1016.3
20260510185822 31 116 12.9 19.3 0.00 0.00 0.00 74 1016.3
20260510185331 31 117 9.7 20.9 0.00 0.00 0.00 72 1016.4
20260510184847 31 113 14.5 20.9 0.00 0.00 0.00 73 1016.5
20260510184320 32 155 12.9 20.9 0.00 0.00 0.00 73 1016.5
20260510183854 32 129 14.5 20.9 0.00 0.00 0.00 72 1016.5
20260510183319 32 110 11.3 20.9 0.00 0.00 0.00 73 1016.6
20260510182828 32 116 11.3 20.9 0.00 0.00 0.00 73 1016.6
20260510182321 32 105 9.7 20.9 0.00 0.00 0.00 72 1016.7
20260510181832 32 124 4.8 19.3 0.00 0.00 0.00 72 1016.7
20260510181344 32 113 11.3 19.3 0.00 0.00 0.00 72 1016.8
20260510180838 31 135 9.7 17.7 0.00 0.00 0.00 73 1016.8
20260510180327 31 116 9.7 19.3 0.00 0.00 0.00 72 1016.8
20260510175841 32 127 9.7 19.3 0.00 0.00 0.00 72 1016.9
20260510175342 32 139 11.3 19.3 0.00 0.00 0.00 72 1016.9
20260510174845 33 135 3.2 8.0 0.00 0.00 0.00 71 1016.8
20260510174351 32 100 3.2 8.0 0.00 0.00 0.00 73 1016.9
20260510173823 32 154 4.8 12.9 0.00 0.00 0.00 74 1016.9
20260510173345 31 131 4.8 12.9 0.00 0.00 0.00 74 1016.9
20260510172858 31 147 6.4 11.3 0.00 0.00 0.00 74 1017.0
20260510172332 31 150 4.8 12.9 0.00 0.00 0.00 74 1017.1
20260510171830 32 124 8.0 12.9 0.00 0.00 0.00 72 1017.1
20260510171343 32 104 3.2 9.7 0.00 0.00 0.00 71 1017.1
20260510170856 32 136 3.2 12.9 0.00 0.00 0.00 72 1017.2
20260510170347 32 111 1.6 11.3 0.00 0.00 0.00 72 1017.2
20260510165819 31 163 1.6 6.4 0.00 0.00 0.00 75 1017.1
20260510165349 31 88 1.6 4.8 0.00 0.00 0.00 75 1017.3
20260510164822 31 37 3.2 6.4 0.00 0.00 0.00 74 1017.3
20260510164335 32 63 1.6 6.4 0.00 0.00 0.00 75 1017.4
20260510163848 31 122 3.2 4.8 0.00 0.00 0.00 73 1017.5
20260510163340 32 128 0.0 4.8 0.00 0.00 0.00 74 1017.6
20260510162827 32 129 3.2 4.8 0.00 0.00 0.00 72 1017.7
20260510162318 32 146 1.6 4.8 0.00 0.00 0.00 73 1017.7
20260510161822 32 290 0.0 4.8 0.00 0.00 0.00 75 1017.8
20260510161323 32 126 1.6 4.8 0.00 0.00 0.00 74 1017.8
20260510160833 31 155 0.0 4.8 0.00 0.00 0.00 75 1017.7
20260510160329 31 155 0.0 4.8 0.00 0.00 0.00 75 1017.8
20260510155823 31 160 0.0 4.8 0.00 0.00 0.00 74 1017.9
20260510155346 31 130 3.2 6.4 0.00 0.00 0.00 74 1017.9
20260510154819 31 146 0.0 3.2 0.00 0.00 0.00 74 1017.8
20260510154336 32 148 0.0 3.2 0.00 0.00 0.00 73 1017.7
20260510153824 32 15 0.0 3.2 0.00 0.00 0.00 73 1017.7
20260510153321 31 153 0.0 1.6 0.00 0.00 0.00 76 1017.7
20260510152905 31 142 0.0 4.8 0.00 0.00 0.00 75 1017.8
20260510152407 31 132 1.6 4.8 0.00 0.00 0.00 74 1017.7
20260510151849 32 131 1.6 8.0 0.00 0.00 0.00 73 1017.7
20260510151326 32 165 4.8 8.0 0.00 0.00 0.00 72 1017.6
20260510150823 32 186 3.2 11.3 0.00 0.00 0.00 71 1017.5
20260510150406 32 211 0.0 11.3 0.00 0.00 0.00 74 1017.5
20260510145859 31 214 0.0 8.0 0.00 0.00 0.00 75 1017.6
20260510145326 31 120 3.2 12.9 0.00 0.00 0.00 74 1017.5
20260510144824 31 125 3.2 12.9 0.00 0.00 0.00 75 1017.6
20260510144334 31 108 3.2 9.7 0.00 0.00 0.00 75 1017.4
20260510143842 31 155 1.6 9.7 0.00 0.00 0.00 76 1017.5
20260510143328 31 113 3.2 11.3 0.00 0.00 0.00 75 1017.5
20260510142837 31 116 4.8 11.3 0.00 0.00 0.00 76 1017.4
20260510142324 31 162 0.0 9.7 0.00 0.00 0.00 77 1017.3
20260510141834 31 125 3.2 9.7 0.00 0.00 0.00 77 1017.3
20260510141344 31 139 1.6 6.4 0.00 0.00 0.00 77 1017.3
20260510140839 31 175 1.6 6.4 0.00 0.00 0.00 77 1017.4
20260510140327 31 198 1.6 4.8 0.00 0.00 0.00 77 1017.4
20260510135838 31 120 1.6 3.2 0.00 0.00 0.00 77 1017.6
20260510135338 31 120 0.0 3.2 0.00 0.00 0.00 77 1017.5
20260510134824 31 149 0.0 3.2 0.00 0.00 0.00 78 1017.6
20260510134333 30 149 0.0 3.2 0.00 0.00 0.00 79 1017.5
20260510133841 30 131 0.0 6.4 0.00 0.00 0.00 79 1017.6
20260510133405 29 127 0.0 0.0 0.00 0.00 0.00 80 1017.6
20260510132833 29 127 0.0 0.0 0.00 0.00 0.00 80 1017.6
20260510132341 28 127 0.0 0.0 0.00 0.00 0.00 80 1017.6
20260510131844 28 116 0.0 1.6 0.00 0.00 0.00 80 1017.6
20260510131324 28 116 0.0 3.2 0.00 0.00 0.00 80 1017.7
20260510130843 29 82 0.0 4.8 0.00 0.00 0.00 79 1017.6
20260510130327 29 161 1.6 4.8 0.00 0.00 0.00 79 1017.6
20260510125835 29 127 0.0 3.2 0.00 0.00 0.00 80 1017.6
20260510125345 29 116 0.0 3.2 0.00 0.00 0.00 80 1017.6
20260510124841 29 112 0.0 1.6 0.00 0.00 0.00 81 1017.6
20260510124332 28 75 0.0 0.0 0.00 0.00 0.00 81 1017.5
20260510123823 28 75 0.0 0.0 0.00 0.00 0.00 81 1017.4
20260510123403 28 24 0.0 0.0 0.00 0.00 0.00 81 1017.3
20260510122823 28 4 0.0 0.0 0.00 0.00 0.00 81 1017.3
20260510122323 28 4 0.0 0.0 0.00 0.00 0.00 82 1017.2
20260510121832 28 4 0.0 0.0 0.00 0.00 0.00 81 1017.1
20260510121344 27 4 0.0 0.0 0.00 0.00 0.00 82 1017.0
20260510120823 27 4 0.0 0.0 0.00 0.00 0.00 82 1016.8
20260510120410 27 4 0.0 0.0 0.00 0.00 0.00 82 1016.9
20260510115844 27 4 0.0 0.0 0.00 0.00 0.00 82 1016.8
20260510115329 27 4 0.0 0.0 0.00 0.00 0.00 82 1016.7
20260510114822 27 4 0.0 0.0 0.00 0.00 0.00 83 1016.7
20260510114331 27 4 0.0 0.0 0.00 0.00 0.00 84 1016.7
20260510113843 27 4 0.0 0.0 0.00 0.00 0.00 86 1016.7
20260510113334 26 4 0.0 0.0 0.00 0.00 0.00 87 1016.6
20260510112824 26 4 0.0 0.0 0.00 0.00 0.00 88 1016.5
20260510112334 25 4 0.0 0.0 0.00 0.00 0.00 88 1016.4
20260510111846 25 4 0.0 0.0 0.00 0.00 0.00 88 1016.4
20260510111323 25 4 0.0 0.0 0.00 0.00 0.00 88 1016.3
20260510110835 25 4 0.0 0.0 0.00 0.00 0.00 88 1016.1
20260510110329 25 4 0.0 0.0 0.00 0.00 0.00 88 1016.1
20260510105840 25 4 0.0 0.0 0.00 0.00 0.00 88 1016.1
20260510105325 25 4 0.0 0.0 0.00 0.00 0.00 88 1016.0
20260510104826 25 4 0.0 0.0 0.00 0.00 0.00 88 1015.9
20260510104338 25 4 0.0 0.0 0.00 0.00 0.00 88 1015.8
20260510103844 25 4 0.0 0.0 0.00 0.00 0.00 88 1015.7
20260510103332 25 4 0.0 0.0 0.00 0.00 0.00 88 1015.6
20260510102827 25 4 0.0 0.0 0.00 0.00 0.00 88 1015.6
20260510102339 25 4 0.0 4.8 0.00 0.00 0.00 88 1015.6
20260510101844 25 4 0.0 4.8 0.00 0.00 0.00 88 1015.5
20260510101335 25 299 0.0 0.0 0.00 0.00 0.00 88 1015.4
20260510100820 25 299 0.0 0.0 0.00 0.00 0.00 88 1015.3
20260510100350 25 299 0.0 0.0 0.00 0.00 0.00 88 1015.3
20260510095849 25 299 0.0 0.0 0.00 0.00 0.00 88 1015.3
20260510095340 25 299 0.0 0.0 0.00 0.00 0.00 88 1015.3
20260510094907 25 299 0.0 0.0 0.00 0.00 0.00 88 1015.4
20260510094354 25 300 0.0 0.0 0.00 0.00 0.00 88 1015.2
20260510093824 25 300 0.0 0.0 0.00 0.00 0.00 88 1015.2
20260510093345 25 300 0.0 0.0 0.00 0.00 0.00 88 1015.1
20260510092845 25 300 0.0 0.0 0.00 0.00 0.00 88 1015.2
20260510092337 25 300 0.0 0.0 0.00 0.00 0.00 88 1015.1
20260510091839 25 300 0.0 0.0 0.00 0.00 0.00 88 1015.2
20260510091333 25 300 0.0 0.0 0.00 0.00 0.00 88 1015.0
20260510090908 25 300 0.0 0.0 0.00 0.00 0.00 88 1015.0
20260510090330 25 300 0.0 0.0 0.00 0.00 0.00 88 1014.9
20260510085823 25 300 0.0 0.0 0.00 0.00 0.00 88 1015.0
20260510085334 25 300 0.0 0.0 0.00 0.00 0.00 87 1015.0
20260510084826 25 300 0.0 0.0 0.00 0.00 0.00 87 1014.9
20260510084328 25 300 0.0 0.0 0.00 0.00 0.00 87 1015.1
20260510083838 25 300 0.0 0.0 0.00 0.00 0.00 87 1015.0
20260510083404 25 300 0.0 0.0 0.00 0.00 0.00 87 1015.0
20260510082822 25 300 0.0 0.0 0.00 0.00 0.00 87 1015.0
20260510082333 25 300 0.0 0.0 0.00 0.00 0.00 86 1015.1
20260510081854 25 300 0.0 0.0 0.00 0.00 0.00 86 1015.0
20260510081326 25 300 0.0 0.0 0.00 0.00 0.00 86 1015.1
20260510080840 25 300 0.0 0.0 0.00 0.00 0.00 86 1015.1
20260510080331 25 300 0.0 0.0 0.00 0.00 0.00 86 1015.0
20260510075826 25 300 0.0 0.0 0.00 0.00 0.00 86 1015.0
20260510075337 25 300 0.0 0.0 0.00 0.00 0.00 86 1015.0
20260510074831 25 300 0.0 0.0 0.00 0.00 0.00 86 1015.1
20260510074343 25 300 0.0 0.0 0.00 0.00 0.00 86 1015.0
20260510073831 25 300 0.0 0.0 0.00 0.00 0.00 86 1015.0
20260510073323 25 300 0.0 0.0 0.00 0.00 0.00 86 1015.1
20260510072835 25 300 0.0 0.0 0.00 0.00 0.00 86 1015.2
20260510072329 25 300 0.0 0.0 0.00 0.00 0.00 86 1015.2
20260510071832 25 300 0.0 0.0 0.00 0.00 0.00 85 1015.3
20260510071341 25 300 0.0 0.0 0.00 0.00 0.00 85 1015.2
20260510070844 25 300 0.0 0.0 0.00 0.00 0.00 85 1015.2
20260510070345 25 300 0.0 0.0 0.00 0.00 0.00 85 1015.2
20260510065838 25 300 0.0 0.0 0.00 0.00 0.00 85 1015.0
20260510065330 25 300 0.0 0.0 0.00 0.00 0.00 85 1015.2
20260510064839 25 300 0.0 0.0 0.00 0.00 0.00 85 1015.3
20260510064331 25 300 0.0 0.0 0.00 0.00 0.00 84 1015.3
20260510063906 25 300 0.0 0.0 0.00 0.00 0.00 84 1015.3
20260510063356 26 300 0.0 0.0 0.00 0.00 0.00 84 1015.3
20260510062834 26 300 0.0 0.0 0.00 0.00 0.00 84 1015.3
20260510062352 26 300 0.0 0.0 0.00 0.00 0.00 84 1015.4
20260510061820 26 300 0.0 0.0 0.00 0.00 0.00 83 1015.4
20260510061331 26 300 0.0 0.0 0.00 0.00 0.00 83 1015.6
20260510060822 26 300 0.0 0.0 0.00 0.00 0.00 83 1015.6
20260510060330 26 300 0.0 1.6 0.00 0.00 0.00 83 1015.6
20260510055823 26 300 0.0 1.6 0.00 0.00 0.00 83 1015.6
20260510055345 26 300 0.0 1.6 0.00 0.00 0.00 83 1015.6
20260510054837 26 152 0.0 0.0 0.00 0.00 0.00 83 1015.6
20260510054346 26 152 0.0 0.0 0.00 0.00 0.00 83 1015.7
20260510053856 26 152 0.0 0.0 0.00 0.00 0.00 83 1015.7
20260510053328 26 153 0.0 0.0 0.00 0.00 0.00 83 1015.6
20260510052822 26 152 0.0 0.0 0.00 0.00 0.00 83 1015.7
20260510052323 26 152 0.0 0.0 0.00 0.00 0.00 83 1015.8
20260510051833 26 152 0.0 0.0 0.00 0.00 0.00 83 1016.0
20260510051327 26 152 0.0 0.0 0.00 0.00 0.00 83 1015.9
20260510050835 26 153 0.0 0.0 0.00 0.00 0.00 83 1016.0
20260510050330 26 152 0.0 0.0 0.00 0.00 0.00 82 1016.0
20260510045822 26 152 0.0 0.0 0.00 0.00 0.00 82 1016.1
20260510045344 26 152 0.0 0.0 0.00 0.00 0.00 82 1016.0
20260510044824 26 153 0.0 0.0 0.00 0.00 0.00 81 1016.2
20260510044333 26 152 0.0 0.0 0.00 0.00 0.00 81 1016.1
20260510043824 27 152 0.0 0.0 0.00 0.00 0.00 81 1016.2
20260510043344 27 152 0.0 0.0 0.00 0.00 0.00 80 1016.2
20260510042900 27 152 0.0 0.0 0.00 0.00 0.00 80 1016.3
20260510042407 27 152 0.0 0.0 0.00 0.00 0.00 80 1016.2
20260510041846 27 152 0.0 0.0 0.00 0.00 0.00 79 1016.3
20260510041326 27 152 0.0 0.0 0.00 0.00 0.00 79 1016.3
20260510040836 27 152 0.0 0.0 0.00 0.00 0.00 79 1016.2
20260510040347 27 152 0.0 0.0 0.00 0.00 0.00 79 1016.2
20260510035831 27 152 0.0 0.0 0.00 0.00 0.00 78 1016.2
20260510035334 27 152 0.0 0.0 0.00 0.00 0.00 78 1016.2
20260510034846 27 150 0.0 1.6 0.00 0.00 0.00 78 1016.2
20260510034340 27 142 0.0 1.6 0.00 0.00 0.00 78 1016.0
20260510033833 28 142 0.0 1.6 0.00 0.00 0.00 77 1016.1
20260510033324 28 142 0.0 0.0 0.00 0.00 0.00 77 1016.1
20260510032835 28 142 0.0 1.6 0.00 0.00 0.00 77 1016.0
20260510032326 28 142 0.0 1.6 0.00 0.00 0.00 77 1015.9
20260510031857 28 152 0.0 0.0 0.00 0.00 0.00 77 1015.8
20260510031331 28 152 0.0 0.0 0.00 0.00 0.00 77 1015.8
20260510030823 28 151 0.0 3.2 0.00 0.00 0.00 77 1015.7
20260510030332 28 151 0.0 3.2 0.00 0.00 0.00 77 1015.7
20260510025826 28 141 0.0 0.0 0.00 0.00 0.00 77 1015.6
20260510025329 28 158 0.0 3.2 0.00 0.00 0.00 77 1015.6
20260510024820 28 161 1.6 4.8 0.00 0.00 0.00 77 1015.5
20260510024335 28 148 0.0 4.8 0.00 0.00 0.00 77 1015.5
20260510023821 28 148 1.6 4.8 0.00 0.00 0.00 77 1015.5
20260510022822 28 209 0.0 0.0 0.00 0.00 0.00 77 1015.4
20260510022343 28 147 0.0 1.6 0.00 0.00 0.00 77 1015.4
20260510021844 28 174 0.0 6.4 0.00 0.00 0.00 77 1015.4
20260510021326 28 169 1.6 6.4 0.00 0.00 0.00 77 1015.2
20260510020835 28 165 0.0 4.8 0.00 0.00 0.00 77 1015.0
20260510020347 28 105 1.6 8.0 0.00 0.00 0.00 77 1014.8
20260510015820 28 162 1.6 8.0 0.00 0.00 0.00 77 1014.7
20260510015335 28 146 3.2 9.7 0.00 0.00 0.00 77 1014.6
20260510014830 28 147 3.2 9.7 0.00 0.00 0.00 77 1014.6
20260510014357 28 162 3.2 8.0 0.00 0.00 0.00 77 1014.5
20260510013857 28 170 4.8 9.7 0.00 0.00 0.00 77 1014.5
20260510013404 28 148 3.2 9.7 0.00 0.00 0.00 77 1014.5
20260510012836 28 110 3.2 8.0 0.00 0.00 0.00 77 1014.5
20260510012336 28 178 1.6 9.7 0.00 0.00 0.00 77 1014.5
20260510011826 28 188 4.8 9.7 0.00 0.00 0.00 77 1014.4
20260510011321 28 139 4.8 9.7 0.00 0.00 0.00 77 1014.2
20260510010835 28 113 3.2 11.3 0.00 0.00 0.00 77 1014.2
20260510010328 28 136 3.2 11.3 0.00 0.00 0.00 77 1014.1
20260510005822 28 117 4.8 9.7 0.00 0.00 0.00 77 1014.0
20260510005333 28 189 3.2 9.7 0.00 0.00 0.00 77 1014.0
20260510004855 28 152 3.2 9.7 0.00 0.00 0.00 77 1013.8
20260510004330 28 176 3.2 9.7 0.00 0.00 0.00 77 1013.8
20260510003844 28 141 3.2 11.3 0.00 0.00 0.00 76 1013.7
20260510003333 29 120 4.8 11.3 0.00 0.00 0.00 76 1013.7
20260510002826 29 172 3.2 12.9 0.00 0.00 0.00 76 1013.5
20260510002320 29 116 6.4 11.3 0.00 0.00 0.00 76 1013.4
20260510001846 29 153 4.8 11.3 0.00 0.00 0.00 75 1013.3
20260510001338 29 133 3.2 16.1 0.00 0.00 0.00 75 1013.2
20260510000850 29 148 6.4 14.5 0.00 0.00 0.00 75 1013.1
20260510000343 29 174 8.0 14.5 0.00 0.00 0.00 75 1013.0
20260509235835 29 156 4.8 12.9 0.00 0.00 0.00 75 1012.9
20260509235328 30 149 4.8 14.5 0.00 0.00 0.00 74 1012.9
20260509234821 30 132 8.0 17.7 0.00 0.00 0.00 73 1012.9
20260509234332 30 142 6.4 12.9 0.00 0.00 0.00 73 1012.8
20260509233827 30 138 6.4 11.3 0.00 0.00 0.00 73 1012.8
20260509233341 30 155 3.2 14.5 0.00 0.00 0.00 74 1012.8
20260509232835 30 154 6.4 14.5 0.00 0.00 0.00 73 1012.9
20260509232328 30 115 9.7 16.1 0.00 0.00 0.00 73 1012.8
20260509231327 30 148 6.4 14.5 0.00 0.00 0.00 72 1012.6
20260509230821 30 132 8.0 16.1 0.00 0.00 0.00 71 1012.6
20260509230335 30 122 8.0 17.7 0.00 0.00 0.00 71 1012.5
20260509225847 30 136 9.7 17.7 0.00 0.00 0.00 71 1012.5
20260509225355 30 111 9.7 14.5 0.00 0.00 0.00 72 1012.5
20260509224827 31 120 9.7 16.1 0.00 0.00 0.00 71 1012.5
20260509224349 31 149 9.7 16.1 0.00 0.00 0.00 69 1012.6
20260509223841 31 153 6.4 12.9 0.00 0.00 0.00 69 1012.6
20260509223336 31 142 8.0 12.9 0.00 0.00 0.00 69 1012.7
20260509222830 31 158 6.4 16.1 0.00 0.00 0.00 70 1012.6
20260509222339 31 145 9.7 16.1 0.00 0.00 0.00 69 1012.7
20260509221820 31 122 9.7 16.1 0.00 0.00 0.00 70 1012.5
20260509221323 31 117 8.0 16.1 0.00 0.00 0.00 69 1012.5
20260509220846 31 153 9.7 16.1 0.00 0.00 0.00 68 1012.5
20260509220339 31 140 4.8 16.1 0.00 0.00 0.00 68 1012.4
20260509215830 31 115 9.7 17.7 0.00 0.00 0.00 69 1012.3
20260509215322 31 154 11.3 17.7 0.00 0.00 0.00 69 1012.4
20260509214845 31 124 11.3 19.3 0.00 0.00 0.00 68 1012.3
20260509214330 31 124 6.4 19.3 0.00 0.00 0.00 68 1012.3
20260509213824 31 134 11.3 25.7 0.00 0.00 0.00 68 1012.4
20260509213335 31 132 11.3 20.9 0.00 0.00 0.00 70 1012.5
20260509212838 31 127 14.5 22.5 0.00 0.00 0.00 69 1012.3
20260509212332 31 105 12.9 20.9 0.00 0.00 0.00 69 1012.3
20260509211823 31 142 11.3 19.3 0.00 0.00 0.00 71 1012.4
20260509211327 31 146 8.0 17.7 0.00 0.00 0.00 71 1012.3
20260509210821 31 120 9.7 19.3 0.00 0.00 0.00 71 1012.4
20260509210332 32 142 8.0 19.3 0.00 0.00 0.00 70 1012.4
20260509205836 31 162 11.3 22.5 0.00 0.00 0.00 71 1012.5